GFSFLT2_sfc_30mbdewp_126.txt.gz
Dewpoint
68 68 69 70 70 69 68 68 69 70 70 71 71 71 70 70 70 69 69 69 69 69 67 67 68 67 67 67 66 66 64 64
69 68 68 68 68 69 68 68 68 69 70 70 70 70 70 70 70 69 70 69 68 67 67 67 67 66 66 66 65 65 63 62
68 68 67 68 67 68 68 68 68 69 69 70 70 67 68 69 68 69 69 69 68 67 67 67 67 66 65 65 65 61 61 61
66 67 67 67 66 67 67 67 66 66 66 68 67 65 66 65 66 68 69 69 68 67 67 66 66 63 64 64 61 61 61 60
64 66 66 66 65 66 66 65 65 66 66 66 66 66 66 65 66 67 66 67 65 66 66 64 62 63 61 61 60 62 59 59
62 64 66 66 63 64 66 65 67 66 65 67 66 66 66 65 65 64 64 64 63 63 62 62 64 64 62 62 61 60 58 58
60 63 64 65 65 63 63 64 66 66 67 68 68 65 65 65 65 65 64 64 64 62 62 64 63 62 62 61 61 61 60 58
59 61 64 65 64 63 63 64 63 66 66 67 68 65 65 65 65 66 65 65 64 63 62 63 61 61 61 61 60 59 59 58
53 60 63 64 64 63 63 62 63 64 65 66 67 67 66 66 66 66 66 65 65 64 63 63 61 61 60 60 60 60 59 59
37 57 61 63 63 63 62 62 63 63 65 65 66 67 66 66 65 65 65 67 66 65 65 64 61 61 60 60 59 59 59 59
32 52 60 62 62 62 62 62 64 63 63 62 65 66 66 65 65 65 66 66 65 65 64 63 62 61 60 60 60 59 59 59
30 46 60 62 62 62 61 61 63 63 63 63 63 64 65 65 64 65 66 65 64 64 64 64 62 61 60 59 60 60 60 60
35 42 58 62 61 60 59 59 60 61 61 62 63 64 64 64 64 65 65 64 64 64 64 62 62 62 61 61 61 62 61 61
46 48 51 61 61 59 57 58 58 59 60 60 62 63 64 64 64 64 63 63 63 63 63 61 62 62 60 59 57 56 60 60
46 50 57 60 63 61 59 58 59 59 60 60 61 62 63 65 64 64 63 63 62 63 62 62 60 62 61 55 54 51 51 56
47 50 53 62 64 62 61 61 61 62 62 61 62 62 62 63 63 63 62 63 62 62 62 62 61 59 61 59 55 53 50 49
44 48 52 55 62 62 64 62 61 62 63 63 64 63 63 62 63 63 64 63 63 63 62 63 62 61 59 57 58 57 56 52
42 44 46 50 54 55 60 62 63 62 63 63 63 64 64 64 65 65 64 64 64 64 63 63 62 61 59 57 56 56 56 56
41 41 42 45 48 49 51 54 56 58 59 62 63 63 63 64 64 64 64 64 64 64 64 62 62 62 61 58 57 55 55 55
39 39 40 42 44 46 47 49 51 52 53 55 57 60 63 63 64 64 64 64 64 64 64 63 63 63 61 59 58 58 56 56

GFSFLT2_sfc_30mbdewp_132.txt.gz
Dewpoint
71 69 69 69 69 70 70 71 71 71 71 71 71 71 71 70 70 70 71 70 70 69 68 67 68 68 68 67 66 66 66 64
70 69 68 68 69 68 69 70 70 70 70 71 71 70 70 70 70 70 70 69 69 68 67 67 67 67 67 66 66 65 64 63
69 68 68 68 67 68 68 69 69 70 70 70 70 70 70 69 69 68 69 69 69 68 67 67 67 67 66 66 65 65 63 63
69 69 68 68 66 67 68 68 68 69 70 70 70 68 69 67 67 68 69 69 68 67 67 67 66 65 65 65 64 64 63 64
66 69 68 68 66 67 66 66 66 67 68 69 69 67 67 66 67 68 69 69 67 66 66 66 65 64 64 64 63 63 63 64
30 69 68 68 67 66 67 66 66 66 67 68 68 67 67 66 67 68 68 68 67 65 65 65 64 63 62 63 62 61 63 64
35 47 67 67 67 66 66 66 66 66 66 67 68 67 66 67 66 67 67 67 66 65 64 64 63 63 62 62 62 60 62 64
26 35 48 66 65 66 66 66 66 66 66 67 68 67 66 67 67 66 66 66 65 65 64 64 63 61 62 61 62 61 60 63
23 27 35 64 65 65 65 66 64 65 66 67 67 67 66 66 67 66 66 66 65 65 64 64 63 63 62 62 61 61 61 60
30 32 35 43 65 66 64 64 65 65 66 66 68 67 66 66 67 66 66 66 66 65 64 63 62 62 61 62 61 60 61 60
41 45 46 50 52 62 64 64 64 63 66 66 66 67 68 67 65 66 66 66 66 65 65 64 62 62 61 62 61 61 61 60
43 45 45 48 48 51 63 64 64 64 63 64 66 67 66 67 66 66 67 65 65 66 65 65 63 61 61 61 62 61 61 62
42 43 44 45 46 48 53 61 63 63 62 62 65 66 66 66 67 66 65 66 65 65 66 64 63 62 61 61 61 61 61 62
40 41 42 43 46 49 54 57 62 63 63 61 63 66 66 65 67 65 65 63 64 64 64 63 62 63 60 60 57 59 61 61
38 39 41 43 45 48 53 57 61 61 62 61 62 64 67 66 65 65 64 64 62 63 63 62 62 62 62 58 55 53 54 60
37 39 41 43 45 48 50 53 56 60 61 62 61 62 65 66 65 64 65 63 62 62 64 62 61 59 62 62 60 60 54 53
36 38 41 42 43 47 51 53 58 61 60 61 61 62 63 65 64 64 65 64 63 64 64 63 62 59 60 60 60 60 60 58
34 37 40 41 42 47 50 52 57 60 59 61 60 63 63 64 64 64 64 64 64 63 64 64 62 61 61 59 59 58 58 58
33 35 39 41 42 46 48 50 55 55 57 57 56 57 60 62 65 65 64 65 65 65 64 63 63 61 61 61 60 59 59 58
32 33 37 40 41 44 46 47 49 49 50 51 51 55 55 56 57 64 63 64 64 65 64 64 63 62 62 62 61 61 60 58

GFSFLT2_sfc_30mbdewp_135.txt.gz
Dewpoint
68 68 69 69 70 70 71 71 71 70 71 71 71 71 70 70 70 71 71 71 70 69 67 67 67 67 67 66 66 66 65 66
68 68 68 68 69 69 70 70 70 70 70 70 71 70 70 70 70 70 70 69 69 68 67 67 67 67 67 66 65 65 64 66
69 68 67 67 68 68 69 70 70 70 70 70 70 70 70 70 70 70 70 69 68 68 67 67 67 67 66 66 65 64 64 66
69 68 68 67 67 67 67 68 69 70 70 70 70 70 69 69 69 69 69 69 68 67 67 66 66 66 65 65 64 64 64 64
50 68 68 68 66 67 67 67 68 69 69 70 70 69 69 68 68 68 69 68 68 66 66 66 66 65 64 64 63 63 64 64
25 40 64 67 68 67 66 66 66 67 68 69 69 68 68 67 67 67 68 68 67 66 66 65 65 65 64 63 63 63 64 64
40 34 39 52 66 66 67 65 66 66 66 68 68 68 67 66 67 67 68 68 67 65 65 64 64 64 64 63 62 62 64 63
41 43 45 46 54 65 66 67 67 66 66 67 68 67 67 67 67 67 68 67 67 66 65 64 63 63 63 62 62 61 63 64
40 42 44 46 48 52 57 67 67 66 66 67 68 67 66 67 66 67 67 67 66 65 64 64 63 63 61 61 61 62 62 63
38 40 43 45 45 50 52 55 65 65 67 67 67 68 66 67 66 66 66 66 66 65 64 63 63 62 61 62 62 61 61 63
37 38 40 43 44 46 49 53 57 65 66 67 67 67 67 67 67 66 66 66 66 65 64 63 62 62 62 62 61 59 60 61
35 37 39 40 42 44 46 52 55 61 65 65 67 67 67 66 67 66 66 66 65 65 64 64 62 61 62 61 61 60 60 61
34 35 37 38 40 41 44 45 51 55 60 63 65 66 67 67 67 66 66 65 65 65 64 63 63 62 61 60 61 61 60 61
32 33 36 37 40 41 44 46 50 53 56 59 66 66 66 66 66 66 66 65 64 65 64 63 63 62 60 59 57 59 61 61
31 33 35 37 39 41 44 47 48 50 52 58 63 64 66 64 64 66 65 65 64 65 65 64 62 62 61 58 55 54 56 60
31 33 34 37 40 40 42 43 44 47 51 54 57 62 65 65 64 66 65 64 63 64 64 62 61 60 62 61 58 57 52 52
31 32 34 35 40 41 43 44 48 48 51 55 59 61 63 66 64 65 64 64 62 61 62 62 61 61 60 60 61 60 60 58
31 33 34 35 37 41 42 45 47 50 52 56 59 60 62 64 65 65 65 63 62 62 62 62 61 61 60 59 58 58 57 58
32 32 33 34 36 41 43 44 46 51 54 57 55 55 54 52 60 60 62 64 63 62 63 63 63 62 60 60 60 58 58 58
32 32 32 33 34 39 42 42 44 48 48 48 49 53 51 50 50 54 52 52 64 63 63 64 63 62 61 60 60 59 60 59

GFSFLT2_sfc_30mbdewp_141.txt.gz
Dewpoint
67 68 68 69 70 70 70 70 69 69 69 70 70 70 70 70 70 70 70 70 70 68 67 67 67 67 66 66 66 65 65 66
46 48 49 64 68 69 70 70 69 69 69 70 70 70 69 69 69 70 70 70 69 68 67 66 67 66 66 66 65 65 65 65
43 45 47 49 57 67 68 69 70 70 69 70 69 69 69 69 69 69 70 70 69 68 67 66 66 66 66 65 65 64 64 65
39 40 45 47 50 55 59 66 68 69 69 69 69 69 69 69 69 69 70 69 69 68 67 66 66 65 65 65 64 63 64 65
36 38 43 44 47 51 52 56 61 67 67 68 68 68 68 69 68 69 69 69 68 68 67 66 65 65 64 65 64 63 64 65
34 36 38 39 43 46 49 53 55 56 65 68 68 67 67 67 68 67 68 68 67 67 66 65 65 64 64 64 64 63 63 64
32 33 37 37 38 41 45 47 52 56 57 66 68 67 67 66 66 67 67 67 66 66 65 65 64 64 64 63 63 62 63 64
30 31 34 35 36 38 40 43 49 50 55 57 61 67 67 67 66 66 66 66 66 66 65 64 64 64 63 64 63 62 63 63
29 29 32 33 33 35 37 40 43 46 52 56 57 61 66 67 66 66 66 66 65 65 65 64 63 63 63 63 63 63 62 63
28 29 31 32 32 34 37 38 41 44 48 50 53 55 58 66 66 66 66 66 65 64 65 64 63 62 62 62 63 63 62 63
28 29 30 32 33 34 36 38 40 43 46 48 50 54 57 56 63 65 66 66 65 64 64 64 63 62 61 61 62 62 62 62
28 29 31 32 32 33 35 37 38 42 44 46 48 51 52 55 56 63 65 66 65 65 64 64 63 63 62 61 61 62 61 62
29 29 30 32 32 33 34 34 36 39 42 45 46 47 51 55 55 58 65 64 64 65 64 63 63 63 61 61 60 61 60 60
28 29 30 31 31 32 33 35 37 39 40 43 45 47 50 55 58 56 63 64 63 65 64 63 62 62 60 59 58 59 60 60
28 29 30 31 32 32 33 35 37 38 39 41 44 46 47 49 51 52 56 62 62 63 64 63 62 62 61 58 55 55 56 59
29 29 30 32 33 33 33 34 35 38 40 42 45 46 46 48 51 55 54 59 61 62 63 63 62 61 61 61 57 55 53 53
28 29 30 32 32 33 35 35 38 40 42 43 42 45 48 49 50 53 55 55 61 60 60 63 63 61 61 61 58 56 55 51
28 30 31 31 33 34 35 35 37 38 40 42 43 45 48 51 53 56 58 56 56 59 62 62 63 63 62 61 60 57 56 56
29 30 30 30 32 32 34 35 35 36 40 41 43 44 49 49 53 55 54 54 57 59 61 63 63 62 62 61 61 60 58 58
29 29 29 30 32 33 33 34 34 36 37 37 40 41 44 45 50 53 52 54 55 59 61 58 61 62 61 61 60 60 60 59

GFSFLT2_sfc_30mbdewp_147.txt.gz
Dewpoint
40 42 42 44 48 51 55 60 65 68 69 69 69 70 70 70 70 70 70 70 70 69 67 67 67 67 67 66 66 66 65 66
36 38 39 40 42 45 47 52 56 62 67 67 68 68 69 69 70 70 70 70 70 69 67 67 67 66 66 66 66 66 65 66
33 34 37 37 36 40 43 46 49 55 58 63 67 68 68 68 68 68 69 70 70 69 67 66 66 66 66 65 65 64 64 65
31 33 35 35 34 39 39 40 44 46 53 54 60 66 67 68 68 68 69 69 69 69 68 66 66 64 64 65 63 63 65 65
30 31 33 34 34 35 36 39 40 41 46 49 51 59 67 67 68 68 68 68 68 68 68 67 65 64 64 63 63 64 64 65
30 30 32 33 34 34 35 37 39 40 43 44 47 55 58 65 66 67 67 67 67 67 67 66 66 65 65 64 64 63 63 65
30 30 32 32 33 34 35 36 38 41 41 43 44 46 55 56 59 66 66 67 67 66 66 66 66 65 65 64 63 64 64 63
30 31 32 33 33 34 34 35 37 38 40 42 43 48 46 50 55 57 65 66 66 66 66 65 65 65 64 64 63 62 62 63
30 30 32 32 33 34 34 34 36 37 39 41 42 44 46 47 47 54 57 65 66 66 66 65 65 64 64 63 63 63 62 62
29 30 31 33 33 33 33 34 35 36 37 38 41 44 45 45 48 49 57 57 62 65 65 64 63 63 63 63 62 62 62 61
29 30 31 32 33 33 33 34 34 35 36 37 40 41 44 45 47 49 51 53 54 61 65 63 63 63 62 62 62 61 61 61
29 30 31 32 32 33 33 33 33 34 35 36 39 40 41 43 45 46 47 48 52 55 62 64 63 62 61 61 62 62 61 61
29 30 31 31 31 30 31 32 32 34 35 36 37 39 40 42 44 46 47 48 50 52 54 61 63 63 61 61 61 62 61 61
29 29 30 30 30 30 32 33 34 34 35 35 38 38 39 40 42 44 45 48 49 52 54 54 56 62 60 59 56 59 61 61
29 29 30 30 30 30 31 32 32 32 33 35 37 38 40 42 41 43 45 47 47 48 51 53 55 55 62 59 55 54 56 60
29 29 29 29 30 29 29 30 30 31 33 35 37 38 41 42 44 44 44 45 46 47 48 50 56 57 61 62 60 58 53 54
29 29 29 29 29 29 29 30 30 30 32 34 35 36 39 41 43 44 46 48 48 47 49 50 56 58 55 55 57 59 57 54
29 29 28 28 29 28 29 28 29 29 30 31 32 34 36 38 39 41 43 45 47 49 50 52 54 58 58 56 55 55 56 55
28 29 28 28 28 27 28 28 28 28 29 29 30 32 33 35 38 40 42 45 48 50 51 51 53 58 58 58 58 57 56 57
28 28 28 28 28 27 28 27 28 27 28 30 30 31 32 34 36 38 39 41 45 52 53 53 55 57 58 58 58 58 59 59

GFSFLT2_sfc_30mbdewp_150.txt.gz
Dewpoint
42 42 42 43 44 47 48 50 54 60 64 67 68 68 69 68 68 70 70 70 70 70 69 68 67 67 67 67 67 67 63 60
39 39 40 41 40 43 44 46 48 52 57 59 63 67 67 68 68 68 69 70 70 70 69 67 67 67 67 66 66 66 63 59
36 36 38 38 35 38 41 42 43 46 49 54 60 66 67 67 66 67 67 68 69 70 69 67 67 66 66 66 66 62 59 59
33 35 37 37 33 37 37 38 41 43 46 49 49 54 63 66 66 67 67 68 67 69 69 68 66 63 63 65 63 59 59 58
32 34 37 37 36 36 36 37 39 41 43 46 46 47 54 62 66 65 67 67 67 67 67 67 63 62 59 60 60 59 58 58
32 34 36 37 37 36 37 37 38 39 41 43 45 43 43 52 61 65 65 66 67 66 66 65 63 62 61 61 61 59 58 57
34 34 36 36 37 37 37 37 37 40 39 41 44 44 44 48 48 54 60 66 65 67 67 66 64 62 62 62 61 61 58 58
34 34 35 36 36 37 37 36 37 38 38 40 44 44 44 45 44 45 53 59 67 66 66 66 66 65 61 62 61 60 60 59
33 33 35 36 36 36 36 35 37 37 37 39 41 42 44 46 45 45 44 49 58 61 66 65 65 66 64 61 61 61 60 59
32 33 35 36 36 36 35 36 37 36 36 37 39 41 43 44 44 44 45 47 52 58 60 65 64 64 64 64 61 60 60 59
32 33 34 35 35 35 34 35 35 35 36 36 38 40 41 42 42 44 46 46 47 51 56 57 63 63 63 64 64 60 59 59
32 33 34 34 33 32 32 33 34 35 35 36 38 38 39 40 41 43 46 46 45 44 46 54 57 63 63 63 64 63 59 59
31 32 32 32 31 31 31 31 32 33 34 35 36 37 38 39 39 41 44 46 45 46 46 49 54 58 62 62 63 63 62 60
31 31 31 31 30 31 31 31 32 32 32 33 35 36 39 39 40 40 42 44 44 46 47 48 47 55 58 59 58 60 61 62
31 31 31 31 31 30 30 30 30 30 30 31 33 34 36 39 40 42 43 43 43 44 47 46 49 50 56 57 56 52 58 60
31 31 31 30 31 30 29 29 28 29 29 30 31 33 35 37 38 40 42 43 45 45 45 47 46 49 51 57 58 58 54 54
31 31 31 30 30 30 29 28 28 28 29 29 30 32 34 35 37 38 39 42 43 44 46 47 47 45 46 51 57 58 58 54
31 30 30 30 30 29 29 28 28 28 28 28 29 31 32 34 35 37 39 41 43 45 46 47 48 48 47 51 56 57 56 55
29 30 29 29 30 29 28 27 27 27 27 27 28 30 30 32 34 35 38 39 41 43 46 49 49 50 49 51 56 57 54 54
29 30 27 28 29 29 28 27 27 27 27 28 29 30 32 32 32 33 35 36 38 41 47 47 52 51 50 51 56 57 57 57

GFSFLT2_sfc_30mbdewp_153.txt.gz
Dewpoint
44 44 44 45 46 46 47 48 49 51 57 59 60 65 67 68 68 68 68 69 70 70 70 70 69 67 67 67 67 67 65 59
42 41 42 43 41 44 45 46 47 48 49 53 53 62 66 67 67 67 68 68 69 70 70 69 68 67 67 67 67 66 65 60
39 40 41 41 35 39 42 43 45 46 46 49 50 57 61 66 66 66 66 67 68 68 68 69 67 67 66 66 66 64 60 58
35 39 41 40 36 39 39 39 41 43 46 47 47 48 48 52 62 66 66 67 67 67 67 68 68 65 63 65 64 62 58 56
35 37 41 41 39 38 38 39 40 42 43 46 46 47 46 45 49 61 66 66 66 65 65 66 65 64 60 59 62 61 59 55
35 36 40 41 41 39 40 39 39 40 42 43 44 45 45 46 45 47 55 65 66 66 65 66 66 65 63 60 59 57 57 56
37 37 39 39 40 40 41 40 39 41 40 41 43 45 45 45 46 47 46 50 62 66 66 65 65 65 64 62 60 58 57 56
36 36 38 39 39 40 40 38 39 39 39 40 42 43 44 45 45 45 45 45 47 59 63 64 65 65 64 64 63 60 58 59
35 35 37 39 38 39 38 37 39 39 39 39 40 42 42 44 45 45 45 46 48 48 57 61 64 65 65 65 63 63 60 59
34 36 37 38 38 38 37 37 38 38 38 38 39 40 42 42 42 43 44 47 48 47 48 55 60 63 63 65 65 63 62 60
34 36 37 37 37 36 35 36 36 36 36 37 38 40 40 40 40 42 44 44 46 46 45 49 55 59 61 64 64 64 62 61
34 35 36 36 34 34 33 34 34 35 35 35 37 37 39 39 40 41 42 42 43 45 46 45 47 52 58 59 64 64 64 62
34 34 34 34 32 32 32 32 33 33 33 34 35 36 36 38 40 41 42 41 41 45 46 47 46 48 53 57 60 63 63 63
33 33 33 33 32 32 32 32 32 32 32 32 33 34 35 35 38 39 40 42 43 43 43 45 48 48 49 54 55 58 62 62
33 33 33 33 33 31 32 31 31 30 30 30 31 33 34 35 37 38 39 40 41 44 44 43 44 47 49 50 49 51 55 60
33 33 32 32 33 32 31 30 29 29 29 29 30 32 32 34 36 36 37 38 40 42 43 46 45 44 47 47 53 55 54 52
33 32 30 32 32 32 30 30 29 29 29 29 29 30 31 32 34 34 36 38 40 41 43 44 45 46 45 46 47 53 55 55
31 31 28 31 31 31 30 29 29 29 29 28 29 30 30 32 32 33 34 36 37 39 41 43 45 46 46 46 47 47 51 53
29 30 24 29 30 31 30 29 29 28 28 28 29 29 30 32 32 31 33 34 35 37 40 42 44 46 48 47 48 49 50 52
30 26 25 26 29 30 30 30 29 29 28 28 29 29 30 31 31 31 31 32 35 36 37 39 42 44 49 49 49 50 51 54

GFSFLT2_sfc_30mbdewp_159.txt.gz
Dewpoint
47 47 47 49 47 49 49 50 51 52 56 53 54 54 55 57 61 67 67 68 68 68 68 69 69 70 69 67 66 66 67 66
45 45 45 45 42 48 48 52 49 52 52 52 52 52 52 53 53 54 57 61 67 67 68 68 68 69 69 68 66 66 66 66
44 44 44 44 42 46 45 49 46 50 47 49 50 50 51 51 53 53 56 58 66 67 67 67 67 68 68 68 67 66 66 65
43 44 44 43 44 44 44 46 44 46 45 48 49 48 49 51 51 52 52 53 55 62 66 66 67 67 67 67 67 66 66 65
41 42 44 43 45 44 44 44 46 43 45 47 46 47 48 48 48 49 50 50 51 52 53 63 66 66 66 66 66 66 65 64
39 41 43 43 44 44 44 44 44 43 44 45 45 45 45 46 47 48 48 49 49 50 52 55 64 66 66 65 65 65 65 64
38 41 42 42 43 42 42 44 42 43 42 45 44 44 45 46 45 45 45 47 47 48 48 50 52 55 62 64 65 65 64 65
38 41 42 41 41 41 41 41 41 41 43 41 44 44 42 43 44 44 43 43 43 44 45 47 49 52 55 58 60 65 65 64
37 40 40 39 40 41 39 41 40 40 39 40 41 41 42 42 41 41 41 40 40 42 43 44 46 49 51 55 61 62 65 65
39 39 38 38 39 37 38 39 39 38 38 40 39 41 40 39 38 38 39 39 41 40 41 43 44 47 48 50 53 60 61 64
37 38 37 37 36 36 36 37 37 37 38 37 38 35 37 37 37 37 39 39 39 40 39 41 42 42 44 46 50 55 60 61
36 37 36 35 35 35 36 36 36 36 34 35 33 35 35 36 37 36 37 37 38 39 39 40 41 41 42 43 46 51 52 57
35 35 35 34 34 34 33 34 34 33 32 32 32 33 34 34 35 35 35 35 36 37 38 39 40 41 42 42 45 46 49 52
34 34 34 34 34 33 33 33 33 32 31 31 32 32 33 32 34 33 33 34 34 36 37 38 39 40 41 42 40 44 49 53
33 33 33 34 34 33 32 32 32 31 30 30 30 31 31 32 32 32 31 33 34 35 36 38 38 40 41 42 41 42 44 50
33 33 32 34 33 33 32 31 30 30 29 30 30 30 30 31 31 30 31 32 32 33 35 35 37 37 40 41 42 43 43 41
33 32 32 33 32 32 31 30 30 30 30 29 29 29 30 29 30 29 30 31 32 32 34 35 37 38 38 40 42 42 42 42
27 29 31 32 31 31 30 30 29 29 28 28 29 30 30 29 30 28 29 29 31 32 32 33 34 35 37 40 41 41 41 41
25 27 29 30 30 30 29 29 28 27 26 27 27 28 28 28 28 28 29 29 30 31 30 31 31 32 34 35 38 39 43 44
27 28 28 28 28 28 28 27 27 26 26 26 26 26 27 27 27 27 28 28 30 29 28 29 29 30 30 31 33 36 38 40

GFSFLT2_sfc_30mbdewp_162.txt.gz
Dewpoint
46 45 47 48 53 53 55 53 55 51 51 52 52 54 54 54 55 56 58 59 63 67 68 68 68 68 69 69 68 66 66 66
44 44 44 43 46 51 52 51 52 49 50 50 50 49 51 52 53 54 54 55 55 63 66 67 68 68 68 68 68 67 66 65
44 44 43 44 45 47 47 49 47 47 48 48 47 47 49 48 49 50 51 53 53 53 55 57 66 67 67 67 68 67 66 65
42 43 43 44 44 44 44 46 44 44 46 46 46 45 47 48 48 48 49 49 50 52 53 55 58 65 67 67 67 67 66 65
41 42 43 43 44 43 44 44 44 44 45 45 45 45 46 47 46 46 47 48 48 49 50 51 52 54 60 66 66 67 66 65
41 42 41 42 42 42 43 43 42 43 43 45 45 44 45 45 44 45 45 44 43 44 45 46 48 51 53 55 62 65 65 65
41 41 40 41 40 41 41 41 41 41 42 43 42 42 42 43 43 42 42 41 40 40 42 43 44 47 50 53 56 58 62 65
40 39 39 39 40 40 40 41 40 39 41 41 42 41 40 40 40 40 40 39 39 40 41 42 43 45 47 50 52 55 60 62
39 38 38 38 37 37 38 38 38 39 39 39 37 38 38 38 38 37 38 39 41 41 40 41 42 44 46 45 47 51 54 59
37 37 37 36 36 37 37 38 38 37 37 35 36 37 36 36 37 37 37 37 37 39 39 39 39 40 41 43 44 47 50 54
36 36 35 35 35 36 36 37 35 35 34 33 35 35 35 36 36 35 36 36 37 37 37 38 38 38 39 40 42 44 46 48
35 35 35 35 35 35 35 34 34 33 32 33 32 33 34 34 34 34 34 34 34 35 35 37 38 39 39 39 40 43 45 48
34 34 34 34 33 33 32 32 32 31 31 31 32 31 33 32 33 33 32 31 31 33 34 36 37 39 39 38 39 39 42 46
33 33 34 33 33 33 33 32 32 31 31 30 31 31 31 30 31 30 31 32 32 33 34 35 36 38 38 39 38 39 46 44
33 33 33 33 33 32 32 32 30 30 30 30 30 30 30 30 29 29 30 30 31 32 33 34 34 36 38 39 38 39 39 44
32 33 32 32 32 32 31 30 29 29 30 30 30 30 29 30 29 28 29 30 30 31 32 34 35 35 37 39 40 40 37 37
32 33 32 31 31 31 30 29 29 29 29 29 29 30 29 28 29 28 28 29 30 31 32 31 33 33 34 35 38 40 41 39
31 31 31 30 30 30 28 27 27 26 26 27 27 28 28 27 27 28 27 28 30 29 30 31 30 31 32 33 35 36 38 39
29 30 30 29 29 28 27 26 25 24 25 26 26 26 26 26 26 27 26 27 28 28 28 29 29 29 29 30 31 34 36 37
28 28 28 27 27 27 25 23 23 23 23 24 25 25 24 24 25 25 25 25 26 26 25 26 28 29 27 28 29 30 32 34

GFSFLT2_sfc_30mbdewp_165.txt.gz
Dewpoint
44 45 46 50 53 52 54 52 51 52 51 50 50 52 52 52 53 54 55 56 56 57 57 60 67 68 68 68 68 68 66 65
43 44 45 45 46 50 50 49 49 50 48 48 47 48 49 50 51 51 52 53 53 55 56 56 58 65 67 67 67 68 67 66
43 43 44 44 44 47 46 47 47 48 47 47 46 47 48 48 48 49 49 51 52 52 52 53 53 55 62 66 66 67 67 66
42 42 43 43 44 44 44 44 44 44 45 45 45 45 46 46 46 46 47 46 45 46 47 48 48 50 52 54 65 67 67 66
41 41 42 41 43 43 43 43 42 43 43 43 43 44 44 44 44 44 43 42 41 41 42 42 44 47 49 52 52 56 65 66
40 40 40 40 41 41 41 42 41 42 43 43 42 42 42 42 41 41 41 40 39 40 41 43 44 45 47 48 51 54 56 60
39 39 39 39 39 40 40 39 40 41 41 42 40 39 39 39 39 39 39 39 39 40 41 41 42 43 45 47 50 52 53 57
38 38 37 37 38 38 38 39 40 40 37 36 38 38 36 37 38 38 37 37 38 39 39 39 40 42 44 44 45 46 48 51
37 36 36 36 36 37 38 38 37 37 35 36 36 36 35 37 36 36 36 36 37 38 39 39 39 39 40 41 42 43 45 47
36 36 35 35 36 37 36 35 36 34 34 34 34 34 34 36 35 34 35 35 35 36 36 37 38 38 38 38 40 43 44 45
34 35 35 35 35 36 35 34 33 32 33 33 33 34 34 33 34 34 33 32 33 33 34 35 36 37 38 38 39 39 41 42
34 34 34 34 34 34 33 33 32 32 31 32 31 32 32 31 32 31 31 31 32 33 33 34 35 36 38 38 39 40 40 43
33 33 33 33 33 33 32 31 31 31 30 31 31 31 30 30 29 29 30 30 30 32 33 33 34 36 36 37 37 39 40 41
33 32 32 32 32 32 32 32 31 30 30 30 31 31 30 30 28 29 29 29 30 31 32 32 33 35 35 36 36 38 41 39
32 32 32 32 32 32 31 31 30 29 29 30 30 30 28 30 28 28 28 29 29 30 31 31 31 33 35 36 35 34 37 39
33 32 31 31 32 31 29 28 26 28 29 29 30 29 27 28 29 28 27 29 29 28 29 30 31 30 32 35 35 37 36 35
32 31 31 30 30 29 28 26 27 26 27 27 28 28 27 27 27 28 27 28 28 28 28 29 29 29 30 31 32 34 36 38
31 30 29 29 28 27 26 25 24 24 25 25 26 26 25 25 26 26 26 26 27 27 26 27 28 28 28 28 30 31 32 33
30 29 28 27 27 25 22 20 21 21 23 24 24 23 23 23 24 25 24 25 26 25 24 25 25 26 27 27 28 30 31 32
29 27 26 26 25 21 22 22 22 22 22 23 24 24 22 23 22 23 23 23 23 24 23 23 23 24 25 26 27 28 30 30